Hourly Data Report for August 28, 2013

All times are specified in Local Standard Time (LST). Add 1 hour to adjust for Daylight Saving Time where and when it is observed.

VICTORIA INTL A
BRITISH COLUMBIA

48°38'50.000" N
123°25'33.000" W
19.50 m
1018621
71799
YYJ

Download Data

Hourly Data (August 2013)
Hourly Data Report for August 28, 2013
Temp Definition
°C
Dew Point Temp Definition
°C
Rel Hum Definition
%
Wind Dir Definition
10's deg

Wind Spd Definition
km/h
Visibility Definition
km
Stn Press Definition
kPa
Hmdx Definition


Wind Chill Definition


Weather Definition


TIME
00:00 Legend Double Dagger 15.4 14.8 96 20 3 16.1 100.85     Rain
01:00 Legend Double Dagger 14.7 14.2 97 11 3 16.1 100.84     Rain
02:00 Legend Double Dagger 14.9 14.4 97 17 3 32.2 100.81     LegendNANA
03:00 Legend Double Dagger 15.3 14.8 97 27 5 32.2 100.80     LegendNANA
04:00 Legend Double Dagger 15.1 14.5 96 27 5 32.2 100.82     Cloudy
05:00 Legend Double Dagger 14.9 14.3 96 29 4 9.7 100.83     Fog
06:00 Legend Double Dagger 14.8 14.5 98 22 6 9.7 100.90     Fog
07:00 Legend Double Dagger 14.7 14.4 98 11 5 9.7 100.93     Fog
08:00 Legend Double Dagger 15.0 14.7 98 8 5 1.6 100.95     Fog
09:00 Legend Double Dagger 15.7 14.8 94 10 4 4.8 100.99     Fog
10:00 Legend Double Dagger 17.5 15.2 86 32 1 8.1 101.02     Fog
11:00 Legend Double Dagger 17.8 14.7 82 9 7 19.3 101.01     LegendNANA
12:00 Legend Double Dagger 19.4 15.3 77 7 10 24.1 101.02     LegendNANA
13:00 Legend Double Dagger 19.1 15.2 78 9 8 24.1 101.03     Mostly Cloudy
14:00 Legend Double Dagger 19.4 15.1 76 11 7 32.2 101.03     LegendNANA
15:00 Legend Double Dagger 21.1 15.7 71 9 12 32.2 101.02 26   LegendNANA
16:00 Legend Double Dagger 20.5 15.8 74 10 9 32.2 101.00 25   Mostly Cloudy
17:00 Legend Double Dagger 20.3 15.8 75 35 5 48.3 100.98 25   LegendNANA
18:00 Legend Double Dagger 20.2 15.9 76 4 4 48.3 100.94 25   LegendNANA
19:00 Legend Double Dagger 19.1 16.2 83 17 4 48.3 100.93     Mostly Cloudy
20:00 Legend Double Dagger 18.3 16.1 87 22 5 48.3 100.98     LegendNANA
21:00 Legend Double Dagger 18.1 15.9 87 27 4 48.3 101.00     Rain Showers
22:00 Legend Double Dagger 17.4 16.6 95 29 7 32.2 101.02     Rain
23:00 Legend Double Dagger 17.0 16.5 97 26 9 32.2 100.95     Rain Showers

Notes on Data Quality.

Legend

  • E = Estimated
  • M = Missing
  • NA = Not Available
  • ‡ = Partner data that is not subject to review by the National Climate Archives
Date modified: